owner,sensor,date,latitude,longitude,relative_humidity,qcFlag 
DISL,ioos:station:DISL:PPTA:1,2014-04-01T00:00:00Z,30.2791,-87.5561,65.64,1111122 
DISL,ioos:station:DISL:PPTA:1,2014-04-01T00:30:00Z,30.2791,-87.5561,69.06,1111122 
DISL,ioos:station:DISL:PPTA:1,2014-04-01T01:00:00Z,30.2791,-87.5561,71.82,1111122 
DISL,ioos:station:DISL:PPTA:1,2014-04-01T01:30:00Z,30.2791,-87.5561,74.05,1111122 
DISL,ioos:station:DISL:PPTA:1,2014-04-01T02:00:00Z,30.2791,-87.5561,79.6,1111122 
DISL,ioos:station:DISL:PPTA:1,2014-04-01T02:30:00Z,30.2791,-87.5561,83.6,1111122 
DISL,ioos:station:DISL:PPTA:1,2014-04-01T03:00:00Z,30.2791,-87.5561,81.6,1111122 
DISL,ioos:station:DISL:PPTA:1,2014-04-01T03:30:00Z,30.2791,-87.5561,77.04,1111122 
DISL,ioos:station:DISL:PPTA:1,2014-04-01T04:00:00Z,30.2791,-87.5561,79.3,1111122 
DISL,ioos:station:DISL:PPTA:1,2014-04-01T04:30:00Z,30.2791,-87.5561,81.6,1111122 
DISL,ioos:station:DISL:PPTA:1,2014-04-01T05:00:00Z,30.2791,-87.5561,80.9,1111122 
DISL,ioos:station:DISL:PPTA:1,2014-04-01T05:30:00Z,30.2791,-87.5561,83.3,1111122 
DISL,ioos:station:DISL:PPTA:1,2014-04-01T06:00:00Z,30.2791,-87.5561,84.7,1111122 
DISL,ioos:station:DISL:PPTA:1,2014-04-01T06:30:00Z,30.2791,-87.5561,94.4,1111122 
DISL,ioos:station:DISL:PPTA:1,2014-04-01T07:00:00Z,30.2791,-87.5561,95.8,1111122 
DISL,ioos:station:DISL:PPTA:1,2014-04-01T07:30:00Z,30.2791,-87.5561,96.5,1111122 
DISL,ioos:station:DISL:PPTA:1,2014-04-01T08:00:00Z,30.2791,-87.5561,97.6,1111122 
DISL,ioos:station:DISL:PPTA:1,2014-04-01T08:30:00Z,30.2791,-87.5561,97.3,1111122 
DISL,ioos:station:DISL:PPTA:1,2014-04-01T09:00:00Z,30.2791,-87.5561,98.2,1111122 
DISL,ioos:station:DISL:PPTA:1,2014-04-01T09:30:00Z,30.2791,-87.5561,98.9,1111122 
DISL,ioos:station:DISL:PPTA:1,2014-04-01T10:00:00Z,30.2791,-87.5561,99.4,1111122 
DISL,ioos:station:DISL:PPTA:1,2014-04-01T10:30:00Z,30.2791,-87.5561,99.2,1111122 
DISL,ioos:station:DISL:PPTA:1,2014-04-01T11:00:00Z,30.2791,-87.5561,99.5,1111122 
DISL,ioos:station:DISL:PPTA:1,2014-04-01T11:30:00Z,30.2791,-87.5561,99.2,1111122 
DISL,ioos:station:DISL:PPTA:1,2014-04-01T12:00:00Z,30.2791,-87.5561,99.0,1111122 
DISL,ioos:station:DISL:PPTA:1,2014-04-01T12:30:00Z,30.2791,-87.5561,97.1,1111122 
DISL,ioos:station:DISL:PPTA:1,2014-04-01T13:00:00Z,30.2791,-87.5561,95.9,1111122 
DISL,ioos:station:DISL:PPTA:1,2014-04-01T13:30:00Z,30.2791,-87.5561,93.6,1111122 
DISL,ioos:station:DISL:PPTA:1,2014-04-01T14:00:00Z,30.2791,-87.5561,86.4,1111122 
DISL,ioos:station:DISL:PPTA:1,2014-04-01T14:30:00Z,30.2791,-87.5561,84.3,1111122 
DISL,ioos:station:DISL:PPTA:1,2014-04-01T15:00:00Z,30.2791,-87.5561,83.9,1111122 
DISL,ioos:station:DISL:PPTA:1,2014-04-01T15:30:00Z,30.2791,-87.5561,81.1,1111122 
DISL,ioos:station:DISL:PPTA:1,2014-04-01T16:00:00Z,30.2791,-87.5561,78.86,1111122 
DISL,ioos:station:DISL:PPTA:1,2014-04-01T16:30:00Z,30.2791,-87.5561,80.0,1111122 
DISL,ioos:station:DISL:PPTA:1,2014-04-01T17:00:00Z,30.2791,-87.5561,80.4,1111122 
DISL,ioos:station:DISL:PPTA:1,2014-04-01T17:30:00Z,30.2791,-87.5561,81.6,1111122 
DISL,ioos:station:DISL:PPTA:1,2014-04-01T18:00:00Z,30.2791,-87.5561,76.22,1111122 
DISL,ioos:station:DISL:PPTA:1,2014-04-01T18:30:00Z,30.2791,-87.5561,76.86,1111122 
DISL,ioos:station:DISL:PPTA:1,2014-04-01T19:00:00Z,30.2791,-87.5561,77.91,1111122 
DISL,ioos:station:DISL:PPTA:1,2014-04-01T19:30:00Z,30.2791,-87.5561,75.29,1111122 
DISL,ioos:station:DISL:PPTA:1,2014-04-01T20:00:00Z,30.2791,-87.5561,73.83,1111122 
DISL,ioos:station:DISL:PPTA:1,2014-04-01T20:30:00Z,30.2791,-87.5561,73.8,1111122 
DISL,ioos:station:DISL:PPTA:1,2014-04-01T21:00:00Z,30.2791,-87.5561,76.82,1111122 
DISL,ioos:station:DISL:PPTA:1,2014-04-01T21:30:00Z,30.2791,-87.5561,78.87,1111122 
DISL,ioos:station:DISL:PPTA:1,2014-04-01T22:00:00Z,30.2791,-87.5561,78.91,1111122 
DISL,ioos:station:DISL:PPTA:1,2014-04-01T22:30:00Z,30.2791,-87.5561,79.88,1111122 
DISL,ioos:station:DISL:PPTA:1,2014-04-01T23:00:00Z,30.2791,-87.5561,81.1,1111122 
DISL,ioos:station:DISL:PPTA:1,2014-04-01T23:30:00Z,30.2791,-87.5561,83.8,1111122 
DISL,ioos:station:DISL:PPTA:1,2014-04-02T00:00:00Z,30.2791,-87.5561,87.2,1111122 
DISL,ioos:station:DISL:PPTA:1,2014-04-02T00:30:00Z,30.2791,-87.5561,87.6,1111122 
DISL,ioos:station:DISL:PPTA:1,2014-04-02T01:00:00Z,30.2791,-87.5561,87.9,1111122 
DISL,ioos:station:DISL:PPTA:1,2014-04-02T01:30:00Z,30.2791,-87.5561,90.8,1111122 
DISL,ioos:station:DISL:PPTA:1,2014-04-02T02:00:00Z,30.2791,-87.5561,92.4,1111122 
DISL,ioos:station:DISL:PPTA:1,2014-04-02T02:30:00Z,30.2791,-87.5561,91.9,1111122 
DISL,ioos:station:DISL:PPTA:1,2014-04-02T03:00:00Z,30.2791,-87.5561,93.4,1111122 
DISL,ioos:station:DISL:PPTA:1,2014-04-02T03:30:00Z,30.2791,-87.5561,94.0,1111122 
DISL,ioos:station:DISL:PPTA:1,2014-04-02T04:00:00Z,30.2791,-87.5561,95.0,1111122 
DISL,ioos:station:DISL:PPTA:1,2014-04-02T04:30:00Z,30.2791,-87.5561,96.1,1111122 
DISL,ioos:station:DISL:PPTA:1,2014-04-02T05:00:00Z,30.2791,-87.5561,97.1,1111122 
DISL,ioos:station:DISL:PPTA:1,2014-04-02T05:30:00Z,30.2791,-87.5561,97.7,1111122 
DISL,ioos:station:DISL:PPTA:1,2014-04-02T06:00:00Z,30.2791,-87.5561,98.2,1111122 
DISL,ioos:station:DISL:PPTA:1,2014-04-02T06:30:00Z,30.2791,-87.5561,98.6,1111122 
DISL,ioos:station:DISL:PPTA:1,2014-04-02T07:00:00Z,30.2791,-87.5561,98.8,1111122 
DISL,ioos:station:DISL:PPTA:1,2014-04-02T07:30:00Z,30.2791,-87.5561,98.8,1111122 
DISL,ioos:station:DISL:PPTA:1,2014-04-02T08:00:00Z,30.2791,-87.5561,98.6,1111122 
DISL,ioos:station:DISL:PPTA:1,2014-04-02T08:30:00Z,30.2791,-87.5561,98.1,1111122 
DISL,ioos:station:DISL:PPTA:1,2014-04-02T09:00:00Z,30.2791,-87.5561,96.4,1111122 
DISL,ioos:station:DISL:PPTA:1,2014-04-02T09:30:00Z,30.2791,-87.5561,96.0,1111122 
DISL,ioos:station:DISL:PPTA:1,2014-04-02T10:00:00Z,30.2791,-87.5561,96.7,1111122 
DISL,ioos:station:DISL:PPTA:1,2014-04-02T10:30:00Z,30.2791,-87.5561,97.3,1111122 
DISL,ioos:station:DISL:PPTA:1,2014-04-02T11:00:00Z,30.2791,-87.5561,98.4,1111122 
DISL,ioos:station:DISL:PPTA:1,2014-04-02T11:30:00Z,30.2791,-87.5561,98.9,1111122 
DISL,ioos:station:DISL:PPTA:1,2014-04-02T12:00:00Z,30.2791,-87.5561,99.0,1111122 
DISL,ioos:station:DISL:PPTA:1,2014-04-02T12:30:00Z,30.2791,-87.5561,99.1,1111122 
DISL,ioos:station:DISL:PPTA:1,2014-04-02T13:00:00Z,30.2791,-87.5561,98.2,1111122 
DISL,ioos:station:DISL:PPTA:1,2014-04-02T13:30:00Z,30.2791,-87.5561,96.5,1111122 
DISL,ioos:station:DISL:PPTA:1,2014-04-02T14:00:00Z,30.2791,-87.5561,94.2,1111122 
DISL,ioos:station:DISL:PPTA:1,2014-04-02T14:30:00Z,30.2791,-87.5561,92.0,1111122 
DISL,ioos:station:DISL:PPTA:1,2014-04-02T15:00:00Z,30.2791,-87.5561,91.6,1111122 
DISL,ioos:station:DISL:PPTA:1,2014-04-02T15:30:00Z,30.2791,-87.5561,90.7,1111122 
DISL,ioos:station:DISL:PPTA:1,2014-04-02T16:00:00Z,30.2791,-87.5561,88.6,1111122 
DISL,ioos:station:DISL:PPTA:1,2014-04-02T16:30:00Z,30.2791,-87.5561,88.7,1111122 
DISL,ioos:station:DISL:PPTA:1,2014-04-02T17:00:00Z,30.2791,-87.5561,86.9,1111122 
DISL,ioos:station:DISL:PPTA:1,2014-04-02T17:30:00Z,30.2791,-87.5561,85.6,1111122 
DISL,ioos:station:DISL:PPTA:1,2014-04-02T18:00:00Z,30.2791,-87.5561,85.7,1111122 
DISL,ioos:station:DISL:PPTA:1,2014-04-02T18:30:00Z,30.2791,-87.5561,87.7,1111122 
DISL,ioos:station:DISL:PPTA:1,2014-04-02T19:00:00Z,30.2791,-87.5561,86.5,1111122 
DISL,ioos:station:DISL:PPTA:1,2014-04-02T19:30:00Z,30.2791,-87.5561,87.8,1111122 
DISL,ioos:station:DISL:PPTA:1,2014-04-02T20:00:00Z,30.2791,-87.5561,87.9,1111122 
DISL,ioos:station:DISL:PPTA:1,2014-04-02T20:30:00Z,30.2791,-87.5561,87.7,1111122 
DISL,ioos:station:DISL:PPTA:1,2014-04-02T21:00:00Z,30.2791,-87.5561,90.3,1111122 
DISL,ioos:station:DISL:PPTA:1,2014-04-02T21:30:00Z,30.2791,-87.5561,91.3,1111122 
DISL,ioos:station:DISL:PPTA:1,2014-04-02T22:00:00Z,30.2791,-87.5561,92.6,1111122 
DISL,ioos:station:DISL:PPTA:1,2014-04-02T22:30:00Z,30.2791,-87.5561,93.3,1111122 
DISL,ioos:station:DISL:PPTA:1,2014-04-02T23:00:00Z,30.2791,-87.5561,93.6,1111122 
DISL,ioos:station:DISL:PPTA:1,2014-04-02T23:30:00Z,30.2791,-87.5561,94.3,1111122 
DISL,ioos:station:DISL:PPTA:1,2014-04-03T00:00:00Z,30.2791,-87.5561,94.7,1111122 
DISL,ioos:station:DISL:PPTA:1,2014-04-03T00:30:00Z,30.2791,-87.5561,94.1,1111122 
DISL,ioos:station:DISL:PPTA:1,2014-04-03T01:00:00Z,30.2791,-87.5561,94.3,1111122 
DISL,ioos:station:DISL:PPTA:1,2014-04-03T01:30:00Z,30.2791,-87.5561,95.1,1111122 
DISL,ioos:station:DISL:PPTA:1,2014-04-03T02:00:00Z,30.2791,-87.5561,95.8,1111122 
DISL,ioos:station:DISL:PPTA:1,2014-04-03T02:30:00Z,30.2791,-87.5561,95.9,1111122 
DISL,ioos:station:DISL:PPTA:1,2014-04-03T03:00:00Z,30.2791,-87.5561,96.7,1111122 
DISL,ioos:station:DISL:PPTA:1,2014-04-03T03:30:00Z,30.2791,-87.5561,97.8,1111122 
DISL,ioos:station:DISL:PPTA:1,2014-04-03T04:00:00Z,30.2791,-87.5561,98.3,1111122 
DISL,ioos:station:DISL:PPTA:1,2014-04-03T04:30:00Z,30.2791,-87.5561,99.0,1111122 
DISL,ioos:station:DISL:PPTA:1,2014-04-03T05:00:00Z,30.2791,-87.5561,99.2,1111122 
DISL,ioos:station:DISL:PPTA:1,2014-04-03T05:30:00Z,30.2791,-87.5561,98.8,1111122 
DISL,ioos:station:DISL:PPTA:1,2014-04-03T06:00:00Z,30.2791,-87.5561,98.4,1111122 
DISL,ioos:station:DISL:PPTA:1,2014-04-03T06:30:00Z,30.2791,-87.5561,98.2,1111122 
DISL,ioos:station:DISL:PPTA:1,2014-04-03T07:00:00Z,30.2791,-87.5561,98.1,1111122 
DISL,ioos:station:DISL:PPTA:1,2014-04-03T07:30:00Z,30.2791,-87.5561,98.1,1111122 
DISL,ioos:station:DISL:PPTA:1,2014-04-03T08:00:00Z,30.2791,-87.5561,98.2,1111122 
DISL,ioos:station:DISL:PPTA:1,2014-04-03T08:30:00Z,30.2791,-87.5561,98.6,1111122 
DISL,ioos:station:DISL:PPTA:1,2014-04-03T09:00:00Z,30.2791,-87.5561,98.8,1111122 
DISL,ioos:station:DISL:PPTA:1,2014-04-03T09:30:00Z,30.2791,-87.5561,99.1,1111122 
DISL,ioos:station:DISL:PPTA:1,2014-04-03T10:00:00Z,30.2791,-87.5561,99.3,1111122 
DISL,ioos:station:DISL:PPTA:1,2014-04-03T10:30:00Z,30.2791,-87.5561,99.5,1111122 
DISL,ioos:station:DISL:PPTA:1,2014-04-03T11:00:00Z,30.2791,-87.5561,99.7,1111122 
DISL,ioos:station:DISL:PPTA:1,2014-04-03T11:30:00Z,30.2791,-87.5561,99.7,1111122 
DISL,ioos:station:DISL:PPTA:1,2014-04-03T12:00:00Z,30.2791,-87.5561,99.6,1111122 
DISL,ioos:station:DISL:PPTA:1,2014-04-03T12:30:00Z,30.2791,-87.5561,99.2,1111122 
DISL,ioos:station:DISL:PPTA:1,2014-04-03T13:00:00Z,30.2791,-87.5561,96.3,1111122 
DISL,ioos:station:DISL:PPTA:1,2014-04-03T13:30:00Z,30.2791,-87.5561,93.2,1111122 
DISL,ioos:station:DISL:PPTA:1,2014-04-03T14:00:00Z,30.2791,-87.5561,91.3,1111122 
DISL,ioos:station:DISL:PPTA:1,2014-04-03T14:30:00Z,30.2791,-87.5561,89.0,1111122 
DISL,ioos:station:DISL:PPTA:1,2014-04-03T15:00:00Z,30.2791,-87.5561,88.6,1111122 
DISL,ioos:station:DISL:PPTA:1,2014-04-03T15:30:00Z,30.2791,-87.5561,86.4,1111122 
DISL,ioos:station:DISL:PPTA:1,2014-04-03T16:00:00Z,30.2791,-87.5561,87.8,1111122 
DISL,ioos:station:DISL:PPTA:1,2014-04-03T16:30:00Z,30.2791,-87.5561,86.4,1111122 
DISL,ioos:station:DISL:PPTA:1,2014-04-03T17:00:00Z,30.2791,-87.5561,86.3,1111122 
DISL,ioos:station:DISL:PPTA:1,2014-04-03T17:30:00Z,30.2791,-87.5561,86.9,1111122 
DISL,ioos:station:DISL:PPTA:1,2014-04-03T18:00:00Z,30.2791,-87.5561,88.9,1111122 
DISL,ioos:station:DISL:PPTA:1,2014-04-03T18:30:00Z,30.2791,-87.5561,88.6,1111122 
DISL,ioos:station:DISL:PPTA:1,2014-04-03T19:00:00Z,30.2791,-87.5561,86.9,1111122 
DISL,ioos:station:DISL:PPTA:1,2014-04-03T19:30:00Z,30.2791,-87.5561,85.9,1111122 
DISL,ioos:station:DISL:PPTA:1,2014-04-03T20:00:00Z,30.2791,-87.5561,86.7,1111122 
DISL,ioos:station:DISL:PPTA:1,2014-04-03T20:30:00Z,30.2791,-87.5561,84.9,1111122 
DISL,ioos:station:DISL:PPTA:1,2014-04-03T21:00:00Z,30.2791,-87.5561,86.4,1111122 
DISL,ioos:station:DISL:PPTA:1,2014-04-03T21:30:00Z,30.2791,-87.5561,88.6,1111122 
DISL,ioos:station:DISL:PPTA:1,2014-04-03T22:00:00Z,30.2791,-87.5561,92.0,1111122 
DISL,ioos:station:DISL:PPTA:1,2014-04-03T22:30:00Z,30.2791,-87.5561,91.4,1111122 
DISL,ioos:station:DISL:PPTA:1,2014-04-03T23:00:00Z,30.2791,-87.5561,92.2,1111122 
DISL,ioos:station:DISL:PPTA:1,2014-04-03T23:30:00Z,30.2791,-87.5561,94.7,1111122 
DISL,ioos:station:DISL:PPTA:1,2014-04-04T00:00:00Z,30.2791,-87.5561,95.7,1111122 
DISL,ioos:station:DISL:PPTA:1,2014-04-04T00:30:00Z,30.2791,-87.5561,96.3,1111122 
DISL,ioos:station:DISL:PPTA:1,2014-04-04T01:00:00Z,30.2791,-87.5561,96.5,1111122 
DISL,ioos:station:DISL:PPTA:1,2014-04-04T01:30:00Z,30.2791,-87.5561,96.5,1111122 
DISL,ioos:station:DISL:PPTA:1,2014-04-04T02:00:00Z,30.2791,-87.5561,96.3,1111122 
DISL,ioos:station:DISL:PPTA:1,2014-04-04T02:30:00Z,30.2791,-87.5561,96.1,1111122 
DISL,ioos:station:DISL:PPTA:1,2014-04-04T03:00:00Z,30.2791,-87.5561,95.7,1111122 
DISL,ioos:station:DISL:PPTA:1,2014-04-04T03:30:00Z,30.2791,-87.5561,95.8,1111122 
DISL,ioos:station:DISL:PPTA:1,2014-04-04T04:00:00Z,30.2791,-87.5561,96.2,1111122 
DISL,ioos:station:DISL:PPTA:1,2014-04-04T04:30:00Z,30.2791,-87.5561,97.1,1111122 
DISL,ioos:station:DISL:PPTA:1,2014-04-04T05:00:00Z,30.2791,-87.5561,97.7,1111122 
DISL,ioos:station:DISL:PPTA:1,2014-04-04T05:30:00Z,30.2791,-87.5561,98.0,1111122 
DISL,ioos:station:DISL:PPTA:1,2014-04-04T06:00:00Z,30.2791,-87.5561,98.2,1111122 
DISL,ioos:station:DISL:PPTA:1,2014-04-04T06:30:00Z,30.2791,-87.5561,98.2,1111122 
DISL,ioos:station:DISL:PPTA:1,2014-04-04T07:00:00Z,30.2791,-87.5561,98.5,1111122 
DISL,ioos:station:DISL:PPTA:1,2014-04-04T07:30:00Z,30.2791,-87.5561,98.7,1111122 
DISL,ioos:station:DISL:PPTA:1,2014-04-04T08:00:00Z,30.2791,-87.5561,99.2,1111122 
DISL,ioos:station:DISL:PPTA:1,2014-04-04T08:30:00Z,30.2791,-87.5561,99.4,1111122 
DISL,ioos:station:DISL:PPTA:1,2014-04-04T09:00:00Z,30.2791,-87.5561,99.6,1111122 
DISL,ioos:station:DISL:PPTA:1,2014-04-04T09:30:00Z,30.2791,-87.5561,100.0,1111122 
DISL,ioos:station:DISL:PPTA:1,2014-04-04T10:00:00Z,30.2791,-87.5561,100.0,1111122 
DISL,ioos:station:DISL:PPTA:1,2014-04-04T10:30:00Z,30.2791,-87.5561,100.0,1111122 
DISL,ioos:station:DISL:PPTA:1,2014-04-04T11:00:00Z,30.2791,-87.5561,100.0,1111122 
DISL,ioos:station:DISL:PPTA:1,2014-04-04T11:30:00Z,30.2791,-87.5561,100.0,1111122 
DISL,ioos:station:DISL:PPTA:1,2014-04-04T12:00:00Z,30.2791,-87.5561,100.0,1111122 
DISL,ioos:station:DISL:PPTA:1,2014-04-04T12:30:00Z,30.2791,-87.5561,100.0,1111122 
DISL,ioos:station:DISL:PPTA:1,2014-04-04T13:00:00Z,30.2791,-87.5561,100.0,1111122 
DISL,ioos:station:DISL:PPTA:1,2014-04-04T13:30:00Z,30.2791,-87.5561,100.0,1111122 
DISL,ioos:station:DISL:PPTA:1,2014-04-04T14:00:00Z,30.2791,-87.5561,100.0,1111122 
DISL,ioos:station:DISL:PPTA:1,2014-04-04T14:30:00Z,30.2791,-87.5561,99.2,1111122 
DISL,ioos:station:DISL:PPTA:1,2014-04-04T15:00:00Z,30.2791,-87.5561,95.1,1111122 
DISL,ioos:station:DISL:PPTA:1,2014-04-04T15:30:00Z,30.2791,-87.5561,91.5,1111122 
DISL,ioos:station:DISL:PPTA:1,2014-04-04T16:00:00Z,30.2791,-87.5561,90.5,1111122 
DISL,ioos:station:DISL:PPTA:1,2014-04-04T16:30:00Z,30.2791,-87.5561,89.3,1111122 
DISL,ioos:station:DISL:PPTA:1,2014-04-04T17:00:00Z,30.2791,-87.5561,87.9,1111122 
DISL,ioos:station:DISL:PPTA:1,2014-04-04T17:30:00Z,30.2791,-87.5561,87.5,1111122 
DISL,ioos:station:DISL:PPTA:1,2014-04-04T18:00:00Z,30.2791,-87.5561,88.9,1111122 
DISL,ioos:station:DISL:PPTA:1,2014-04-04T18:30:00Z,30.2791,-87.5561,89.2,1111122 
DISL,ioos:station:DISL:PPTA:1,2014-04-04T19:00:00Z,30.2791,-87.5561,88.8,1111122 
DISL,ioos:station:DISL:PPTA:1,2014-04-04T19:30:00Z,30.2791,-87.5561,90.4,1111122 
DISL,ioos:station:DISL:PPTA:1,2014-04-04T20:00:00Z,30.2791,-87.5561,85.3,1111122 
DISL,ioos:station:DISL:PPTA:1,2014-04-04T20:30:00Z,30.2791,-87.5561,89.7,1111122 
DISL,ioos:station:DISL:PPTA:1,2014-04-04T21:00:00Z,30.2791,-87.5561,86.4,1111122 
DISL,ioos:station:DISL:PPTA:1,2014-04-04T21:30:00Z,30.2791,-87.5561,84.0,1111122 
DISL,ioos:station:DISL:PPTA:1,2014-04-04T22:00:00Z,30.2791,-87.5561,86.2,1111122 
DISL,ioos:station:DISL:PPTA:1,2014-04-04T22:30:00Z,30.2791,-87.5561,84.5,1111122 
DISL,ioos:station:DISL:PPTA:1,2014-04-04T23:00:00Z,30.2791,-87.5561,81.5,1111122 
DISL,ioos:station:DISL:PPTA:1,2014-04-04T23:30:00Z,30.2791,-87.5561,88.4,1111122 
DISL,ioos:station:DISL:PPTA:1,2014-04-05T00:00:00Z,30.2791,-87.5561,88.2,1111122 
DISL,ioos:station:DISL:PPTA:1,2014-04-05T00:30:00Z,30.2791,-87.5561,91.6,1111122 
DISL,ioos:station:DISL:PPTA:1,2014-04-05T01:00:00Z,30.2791,-87.5561,92.7,1111122 
DISL,ioos:station:DISL:PPTA:1,2014-04-05T01:30:00Z,30.2791,-87.5561,94.1,1111122 
DISL,ioos:station:DISL:PPTA:1,2014-04-05T02:00:00Z,30.2791,-87.5561,95.9,1111122 
DISL,ioos:station:DISL:PPTA:1,2014-04-05T02:30:00Z,30.2791,-87.5561,96.7,1111122 
DISL,ioos:station:DISL:PPTA:1,2014-04-05T03:00:00Z,30.2791,-87.5561,97.4,1111122 
DISL,ioos:station:DISL:PPTA:1,2014-04-05T03:30:00Z,30.2791,-87.5561,97.8,1111122 
DISL,ioos:station:DISL:PPTA:1,2014-04-05T04:00:00Z,30.2791,-87.5561,98.4,1111122 
DISL,ioos:station:DISL:PPTA:1,2014-04-05T04:30:00Z,30.2791,-87.5561,97.1,1111122 
DISL,ioos:station:DISL:PPTA:1,2014-04-05T05:00:00Z,30.2791,-87.5561,95.3,1111122 
DISL,ioos:station:DISL:PPTA:1,2014-04-05T05:30:00Z,30.2791,-87.5561,94.6,1111122 
DISL,ioos:station:DISL:PPTA:1,2014-04-05T06:00:00Z,30.2791,-87.5561,94.6,1111122 
DISL,ioos:station:DISL:PPTA:1,2014-04-05T06:30:00Z,30.2791,-87.5561,94.1,1111122 
DISL,ioos:station:DISL:PPTA:1,2014-04-05T07:00:00Z,30.2791,-87.5561,92.3,1111122 
DISL,ioos:station:DISL:PPTA:1,2014-04-05T07:30:00Z,30.2791,-87.5561,92.5,1111122 
DISL,ioos:station:DISL:PPTA:1,2014-04-05T08:00:00Z,30.2791,-87.5561,92.8,1111122 
DISL,ioos:station:DISL:PPTA:1,2014-04-05T08:30:00Z,30.2791,-87.5561,93.9,1111122 
DISL,ioos:station:DISL:PPTA:1,2014-04-05T09:00:00Z,30.2791,-87.5561,93.7,1111122 
DISL,ioos:station:DISL:PPTA:1,2014-04-05T09:30:00Z,30.2791,-87.5561,95.2,1111122 
DISL,ioos:station:DISL:PPTA:1,2014-04-05T10:00:00Z,30.2791,-87.5561,91.6,1111122 
DISL,ioos:station:DISL:PPTA:1,2014-04-05T10:30:00Z,30.2791,-87.5561,91.5,1111122 
DISL,ioos:station:DISL:PPTA:1,2014-04-05T11:00:00Z,30.2791,-87.5561,89.7,1111122 
DISL,ioos:station:DISL:PPTA:1,2014-04-05T11:30:00Z,30.2791,-87.5561,89.2,1111122 
DISL,ioos:station:DISL:PPTA:1,2014-04-05T12:00:00Z,30.2791,-87.5561,87.6,1111122 
DISL,ioos:station:DISL:PPTA:1,2014-04-05T12:30:00Z,30.2791,-87.5561,86.0,1111122 
DISL,ioos:station:DISL:PPTA:1,2014-04-05T13:00:00Z,30.2791,-87.5561,83.0,1111122 
DISL,ioos:station:DISL:PPTA:1,2014-04-05T13:30:00Z,30.2791,-87.5561,85.2,1111122 
DISL,ioos:station:DISL:PPTA:1,2014-04-05T14:00:00Z,30.2791,-87.5561,79.18,1111122 
DISL,ioos:station:DISL:PPTA:1,2014-04-05T14:30:00Z,30.2791,-87.5561,78.8,1111122 
DISL,ioos:station:DISL:PPTA:1,2014-04-05T15:00:00Z,30.2791,-87.5561,75.28,1111122 
DISL,ioos:station:DISL:PPTA:1,2014-04-05T15:30:00Z,30.2791,-87.5561,76.95,1111122 
DISL,ioos:station:DISL:PPTA:1,2014-04-05T16:00:00Z,30.2791,-87.5561,73.97,1111122 
DISL,ioos:station:DISL:PPTA:1,2014-04-05T16:30:00Z,30.2791,-87.5561,76.05,1111122 
DISL,ioos:station:DISL:PPTA:1,2014-04-05T17:00:00Z,30.2791,-87.5561,80.9,1111122 
DISL,ioos:station:DISL:PPTA:1,2014-04-05T17:30:00Z,30.2791,-87.5561,80.9,1111122 
DISL,ioos:station:DISL:PPTA:1,2014-04-05T18:00:00Z,30.2791,-87.5561,77.3,1111122 
DISL,ioos:station:DISL:PPTA:1,2014-04-05T18:30:00Z,30.2791,-87.5561,76.09,1111122 
DISL,ioos:station:DISL:PPTA:1,2014-04-05T19:00:00Z,30.2791,-87.5561,78.65,1111122 
DISL,ioos:station:DISL:PPTA:1,2014-04-05T19:30:00Z,30.2791,-87.5561,94.1,1111122 
DISL,ioos:station:DISL:PPTA:1,2014-04-05T20:00:00Z,30.2791,-87.5561,95.5,1111122 
DISL,ioos:station:DISL:PPTA:1,2014-04-05T20:30:00Z,30.2791,-87.5561,97.3,1111122 
DISL,ioos:station:DISL:PPTA:1,2014-04-05T21:00:00Z,30.2791,-87.5561,97.3,1111122 
DISL,ioos:station:DISL:PPTA:1,2014-04-05T21:30:00Z,30.2791,-87.5561,94.7,1111122 
DISL,ioos:station:DISL:PPTA:1,2014-04-05T22:00:00Z,30.2791,-87.5561,94.2,1111122 
DISL,ioos:station:DISL:PPTA:1,2014-04-05T22:30:00Z,30.2791,-87.5561,94.7,1111122 
DISL,ioos:station:DISL:PPTA:1,2014-04-05T23:00:00Z,30.2791,-87.5561,96.0,1111122 
DISL,ioos:station:DISL:PPTA:1,2014-04-05T23:30:00Z,30.2791,-87.5561,95.8,1111122 
DISL,ioos:station:DISL:PPTA:1,2014-04-06T00:00:00Z,30.2791,-87.5561,96.8,1111122 
DISL,ioos:station:DISL:PPTA:1,2014-04-06T00:30:00Z,30.2791,-87.5561,98.0,1111122 
DISL,ioos:station:DISL:PPTA:1,2014-04-06T01:00:00Z,30.2791,-87.5561,98.7,1111122 
DISL,ioos:station:DISL:PPTA:1,2014-04-06T01:30:00Z,30.2791,-87.5561,98.4,1111122 
DISL,ioos:station:DISL:PPTA:1,2014-04-06T02:00:00Z,30.2791,-87.5561,98.3,1111122 
DISL,ioos:station:DISL:PPTA:1,2014-04-06T02:30:00Z,30.2791,-87.5561,97.9,1111122 
DISL,ioos:station:DISL:PPTA:1,2014-04-06T03:00:00Z,30.2791,-87.5561,98.6,1111122 
DISL,ioos:station:DISL:PPTA:1,2014-04-06T03:30:00Z,30.2791,-87.5561,99.0,1111122 
DISL,ioos:station:DISL:PPTA:1,2014-04-06T04:00:00Z,30.2791,-87.5561,97.9,1111122 
DISL,ioos:station:DISL:PPTA:1,2014-04-06T04:30:00Z,30.2791,-87.5561,98.1,1111122 
DISL,ioos:station:DISL:PPTA:1,2014-04-06T05:00:00Z,30.2791,-87.5561,98.1,1111122 
DISL,ioos:station:DISL:PPTA:1,2014-04-06T05:30:00Z,30.2791,-87.5561,97.6,1111122 
DISL,ioos:station:DISL:PPTA:1,2014-04-06T06:00:00Z,30.2791,-87.5561,98.3,1111122 
DISL,ioos:station:DISL:PPTA:1,2014-04-06T06:30:00Z,30.2791,-87.5561,98.4,1111122 
DISL,ioos:station:DISL:PPTA:1,2014-04-06T07:00:00Z,30.2791,-87.5561,98.8,1111122 
DISL,ioos:station:DISL:PPTA:1,2014-04-06T07:30:00Z,30.2791,-87.5561,98.9,1111122 
DISL,ioos:station:DISL:PPTA:1,2014-04-06T08:00:00Z,30.2791,-87.5561,99.2,1111122 
DISL,ioos:station:DISL:PPTA:1,2014-04-06T08:30:00Z,30.2791,-87.5561,99.8,1111122 
DISL,ioos:station:DISL:PPTA:1,2014-04-06T09:00:00Z,30.2791,-87.5561,99.9,1111122 
DISL,ioos:station:DISL:PPTA:1,2014-04-06T09:30:00Z,30.2791,-87.5561,99.8,1111122 
DISL,ioos:station:DISL:PPTA:1,2014-04-06T10:00:00Z,30.2791,-87.5561,100.0,1111122 
DISL,ioos:station:DISL:PPTA:1,2014-04-06T10:30:00Z,30.2791,-87.5561,100.0,1111122 
DISL,ioos:station:DISL:PPTA:1,2014-04-06T11:00:00Z,30.2791,-87.5561,100.0,1111122 
DISL,ioos:station:DISL:PPTA:1,2014-04-06T11:30:00Z,30.2791,-87.5561,100.0,1111122 
DISL,ioos:station:DISL:PPTA:1,2014-04-06T12:00:00Z,30.2791,-87.5561,100.0,1111122 
DISL,ioos:station:DISL:PPTA:1,2014-04-06T12:30:00Z,30.2791,-87.5561,100.0,1111122 
DISL,ioos:station:DISL:PPTA:1,2014-04-06T13:00:00Z,30.2791,-87.5561,100.0,1111122 
DISL,ioos:station:DISL:PPTA:1,2014-04-06T13:30:00Z,30.2791,-87.5561,100.0,1111122 
DISL,ioos:station:DISL:PPTA:1,2014-04-06T14:00:00Z,30.2791,-87.5561,100.0,1111122 
DISL,ioos:station:DISL:PPTA:1,2014-04-06T14:30:00Z,30.2791,-87.5561,100.0,1111122 
DISL,ioos:station:DISL:PPTA:1,2014-04-06T15:00:00Z,30.2791,-87.5561,100.0,1111122 
DISL,ioos:station:DISL:PPTA:1,2014-04-06T15:30:00Z,30.2791,-87.5561,100.0,1111122 
DISL,ioos:station:DISL:PPTA:1,2014-04-06T16:00:00Z,30.2791,-87.5561,100.0,1111122 
DISL,ioos:station:DISL:PPTA:1,2014-04-06T16:30:00Z,30.2791,-87.5561,100.0,1111122 
DISL,ioos:station:DISL:PPTA:1,2014-04-06T17:00:00Z,30.2791,-87.5561,100.0,1111122 
DISL,ioos:station:DISL:PPTA:1,2014-04-06T17:30:00Z,30.2791,-87.5561,100.0,1111122 
DISL,ioos:station:DISL:PPTA:1,2014-04-06T18:00:00Z,30.2791,-87.5561,100.0,1111122 
DISL,ioos:station:DISL:PPTA:1,2014-04-06T18:30:00Z,30.2791,-87.5561,100.0,1111122 
DISL,ioos:station:DISL:PPTA:1,2014-04-06T19:00:00Z,30.2791,-87.5561,100.0,1111122 
DISL,ioos:station:DISL:PPTA:1,2014-04-06T19:30:00Z,30.2791,-87.5561,98.4,1111122 
DISL,ioos:station:DISL:PPTA:1,2014-04-06T20:00:00Z,30.2791,-87.5561,97.6,1111122 
DISL,ioos:station:DISL:PPTA:1,2014-04-06T20:30:00Z,30.2791,-87.5561,96.3,1111122 
DISL,ioos:station:DISL:PPTA:1,2014-04-06T21:00:00Z,30.2791,-87.5561,96.9,1111122 
DISL,ioos:station:DISL:PPTA:1,2014-04-06T21:30:00Z,30.2791,-87.5561,98.6,1111122 
DISL,ioos:station:DISL:PPTA:1,2014-04-06T22:00:00Z,30.2791,-87.5561,99.7,1111122 
DISL,ioos:station:DISL:PPTA:1,2014-04-06T22:30:00Z,30.2791,-87.5561,99.7,1111122 
DISL,ioos:station:DISL:PPTA:1,2014-04-06T23:00:00Z,30.2791,-87.5561,99.7,1111122 
DISL,ioos:station:DISL:PPTA:1,2014-04-06T23:30:00Z,30.2791,-87.5561,99.9,1111122 
DISL,ioos:station:DISL:PPTA:1,2014-04-07T00:00:00Z,30.2791,-87.5561,99.9,1111122 
DISL,ioos:station:DISL:PPTA:1,2014-04-07T00:30:00Z,30.2791,-87.5561,100.0,1111122 
DISL,ioos:station:DISL:PPTA:1,2014-04-07T01:00:00Z,30.2791,-87.5561,100.0,1111122 